GFSSGP_prec_cthk_336.txt.gz
RH
77 81 82 85 82 69 74 65 65 67 66 67 69 71 76 81 78 83 81 81 75 66 55 48 47 46 45 47 50 49 45 53 53 52 52 52 50 52 52 53 54 58 65 63 60 64 64 67 67
83 82 78 77 76 71 63 57 56 54 54 57 57 64 70 80 80 77 78 75 67 59 53 49 46 48 48 47 51 52 47 50 50 47 46 48 49 50 59 58 56 58 65 65 63 66 67 66 70
83 83 78 72 67 60 56 52 55 48 56 55 57 58 66 77 72 72 70 69 65 59 55 49 48 54 51 49 50 50 49 49 51 48 48 50 50 54 51 49 49 52 55 64 65 65 66 66 73
73 75 78 73 64 51 45 55 51 52 53 55 53 58 64 70 70 70 72 72 67 65 59 53 52 56 51 48 47 49 50 53 49 51 51 49 51 51 55 55 52 51 52 57 66 72 72 65 72
73 75 70 71 60 61 66 54 52 53 57 51 53 62 73 75 77 78 78 77 73 72 69 60 56 59 52 46 48 51 53 54 50 53 53 50 48 49 51 53 53 53 52 53 56 69 72 70 73
72 71 70 66 62 57 64 59 54 56 58 52 56 64 72 76 78 78 77 77 76 77 67 57 61 59 49 46 48 50 50 50 53 51 48 47 46 47 49 51 52 52 52 53 54 58 66 72 69
72 74 65 64 63 55 62 69 55 55 59 53 57 61 66 68 75 81 77 76 76 69 63 59 57 52 47 47 47 49 47 46 46 47 47 47 49 49 49 51 52 52 53 54 55 58 62 66 68
72 74 69 60 57 60 53 52 53 52 62 55 54 62 66 62 67 74 73 73 65 61 56 49 47 46 47 48 49 46 43 44 45 46 47 50 52 57 55 55 56 58 56 56 57 59 62 64 67
68 70 64 57 54 49 52 50 57 54 57 60 63 59 67 60 70 68 68 72 63 55 49 47 47 48 45 44 43 43 42 44 45 49 54 60 63 66 64 64 65 64 64 63 62 63 64 72 75
58 68 66 53 52 48 54 47 53 55 55 56 58 63 71 69 65 57 57 56 55 54 50 49 48 45 42 42 42 43 44 46 51 55 59 61 65 68 74 83 88 90 85 81 74 72 74 82 82
54 60 54 58 53 46 59 51 52 54 57 51 54 63 72 70 66 58 53 50 46 45 48 46 47 47 44 46 47 48 52 53 55 58 62 69 70 73 80 75 69 77 81 88 85 89 80 88 88
65 57 55 59 55 50 57 49 52 51 53 51 51 60 65 65 64 58 55 55 50 47 47 46 49 51 49 51 53 57 58 60 61 59 64 70 70 78 71 74 86 95 92 88 88 93 89 94 89
70 63 62 55 54 55 65 49 50 51 52 49 47 56 62 66 62 59 59 58 56 54 49 47 50 52 53 57 65 64 59 62 62 61 66 65 78 68 79 83 90 92 91 92 93 92 87 92 89
66 67 66 59 52 59 55 49 50 56 49 49 48 53 56 58 59 58 58 58 58 55 48 44 47 54 56 57 61 61 58 59 60 66 65 54 71 72 74 81 82 87 93 92 94 92 91 93 87
64 70 65 66 65 56 53 50 51 53 52 46 47 52 54 54 55 53 50 52 50 51 47 42 48 54 56 54 54 59 59 58 63 60 55 58 60 64 71 76 81 86 86 88 89 89 86 87 85
58 69 86 65 63 55 54 56 51 51 51 46 42 53 54 54 51 50 49 48 50 50 47 47 50 53 55 50 50 57 56 58 61 58 66 60 58 66 64 72 75 76 72 71 72 76 75 76 76
52 69 77 72 65 57 51 58 56 52 51 41 42 48 53 52 52 51 46 47 48 48 50 48 51 52 48 45 47 51 55 57 55 60 66 61 63 64 56 63 69 65 62 67 66 67 71 71 74
52 56 65 81 65 55 51 57 57 50 50 54 46 40 48 49 48 45 45 45 46 49 49 50 51 51 49 41 43 52 55 59 55 57 56 62 65 56 48 52 61 60 54 57 65 67 68 73 76
37 46 55 62 58 46 49 56 56 52 49 56 55 45 42 47 50 48 46 43 45 47 49 49 49 49 48 47 46 51 50 51 45 48 62 56 61 55 48 40 48 52 53 54 60 65 69 71 77
37 38 51 49 53 43 39 42 56 58 53 57 60 54 48 44 45 46 47 44 46 46 46 44 45 45 45 47 45 49 50 51 52 49 50 59 54 54 42 35 34 45 48 52 58 60 63 65 64
29 30 41 45 46 40 44 44 56 62 60 62 63 55 51 53 44 45 46 45 43 44 43 44 43 42 42 42 41 45 49 52 67 57 54 55 58 47 32 26 26 32 41 43 45 47 48 53 50
37 30 35 38 39 45 45 54 61 62 54 59 61 58 55 53 54 44 46 51 44 44 45 44 41 41 41 39 42 42 48 51 55 56 58 57 52 36 30 27 25 29 44 46 44 46 45 43 46
33 28 32 32 34 36 47 50 52 58 65 63 64 67 55 55 54 49 43 53 49 44 46 45 43 40 39 38 40 40 45 51 55 62 63 54 42 33 31 27 29 36 40 44 47 46 47 46 44
23 22 22 29 35 38 40 40 47 62 67 72 74 73 64 55 54 53 47 48 53 47 44 46 46 40 41 40 39 38 45 48 54 63 63 52 37 31 29 29 29 36 42 41 41 46 50 49 48
21 21 26 29 39 42 43 44 50 55 62 67 64 70 75 64 54 53 50 48 50 49 47 49 49 47 42 40 40 38 43 46 55 58 60 51 38 31 33 33 31 45 49 49 41 41 45 45 50
17 21 26 24 43 45 45 58 54 47 58 63 57 52 67 60 50 45 50 47 47 48 47 49 51 49 45 41 40 40 38 42 48 55 61 65 55 35 38 39 40 45 47 47 41 33 32 38 52
11 20 22 36 41 44 56 55 48 52 57 51 54 47 60 58 49 43 48 51 49 48 49 48 50 51 47 44 42 40 38 40 44 45 52 50 54 51 38 42 47 51 51 48 42 40 47 53 58
12 18 18 26 41 40 50 55 56 65 51 41 40 42 55 51 49 48 50 55 49 50 52 50 49 49 45 47 46 40 37 36 40 43 48 45 43 45 43 39 45 52 52 51 49 50 54 63 61
11 14 15 21 32 41 47 63 64 62 48 40 38 32 47 56 57 52 50 59 54 52 53 53 52 48 44 43 42 39 35 35 37 40 40 36 36 37 38 42 43 45 48 44 45 49 56 60 61
15 20 18 22 34 46 45 60 58 53 46 45 43 47 39 43 51 49 54 51 50 49 50 51 50 45 40 39 38 32 33 35 35 33 32 31 32 30 29 37 42 43 45 46 46 48 48 50 62

GFSSGP_prec_cthk_339.txt.gz
RH
81 85 83 83 78 75 68 63 60 66 64 67 70 74 78 81 82 85 89 83 69 63 64 50 51 49 50 49 48 51 57 58 56 55 54 50 51 52 51 53 60 66 61 58 62 62 66 70 70
82 82 84 80 67 62 57 56 56 51 55 54 60 66 73 85 83 88 87 79 71 64 66 54 51 51 50 52 49 52 53 52 54 53 50 50 51 54 50 51 59 63 63 64 67 67 66 71 72
79 80 76 70 61 58 56 52 53 51 54 53 57 59 66 78 82 85 80 77 71 66 60 53 54 51 50 53 53 49 53 49 49 49 49 50 52 49 47 49 56 56 62 65 67 67 67 72 77
76 76 77 67 57 52 53 57 58 58 58 55 57 60 63 69 76 78 76 73 73 67 57 59 60 55 52 54 53 51 51 51 51 50 50 51 51 52 49 47 48 50 56 69 77 76 72 75 77
71 64 63 64 64 55 55 57 61 63 57 52 56 62 64 69 70 69 70 68 65 68 63 62 62 56 51 51 52 54 54 52 56 52 49 49 48 48 49 47 47 49 51 55 71 79 76 75 77
69 58 56 57 60 62 61 58 60 59 56 54 59 62 74 68 69 73 74 73 72 73 70 64 63 56 49 51 54 56 56 52 52 49 46 45 45 46 47 46 47 49 52 53 57 69 69 71 72
67 62 60 56 54 58 58 57 57 58 53 55 56 67 73 75 79 82 80 80 78 74 68 64 63 53 49 52 52 53 52 50 48 46 45 46 47 48 48 49 50 50 52 53 55 60 66 70 72
66 68 59 55 56 60 55 57 57 55 55 53 54 64 70 76 75 78 82 80 81 73 64 63 57 51 49 51 50 49 46 44 44 45 45 47 49 52 54 54 58 57 56 55 57 61 63 67 74
67 66 60 52 54 53 54 56 59 55 52 53 63 57 61 67 80 76 78 74 69 64 59 55 50 49 51 51 48 45 45 45 44 45 51 52 56 64 65 66 67 67 67 66 63 63 68 77 79
64 68 55 52 55 58 57 59 56 53 53 55 61 61 60 63 68 75 68 63 59 56 52 49 50 48 47 44 43 43 44 45 49 53 55 62 63 68 76 81 78 84 83 77 76 74 74 83 80
58 61 58 55 55 58 61 57 52 52 59 57 60 64 61 63 60 62 60 58 56 51 51 50 48 45 44 43 45 47 48 52 55 57 63 66 69 75 77 77 82 85 87 87 87 89 83 84 86
60 57 65 64 60 52 51 55 57 53 53 54 62 65 62 64 58 55 57 55 53 49 49 49 48 47 48 48 51 53 54 58 58 60 64 66 73 74 71 77 88 93 92 93 89 88 83 90 90
67 66 62 65 55 52 50 52 58 59 51 50 62 66 63 65 59 55 60 57 50 52 49 50 51 49 50 53 55 56 60 63 61 65 66 68 69 72 77 83 87 91 94 93 88 90 92 92 89
64 66 68 71 74 61 54 54 57 62 55 45 54 65 63 64 63 62 63 61 57 53 51 51 53 53 53 57 59 58 59 60 65 65 60 64 70 69 77 80 85 89 93 92 93 90 89 92 86
60 63 78 71 66 58 56 57 56 57 54 47 47 57 64 65 64 63 63 59 56 56 52 50 53 54 55 55 55 56 58 58 64 60 56 65 63 65 70 73 79 79 80 86 89 86 86 84 82
62 65 80 85 71 61 59 59 59 52 51 47 48 50 55 56 57 62 62 58 55 55 54 53 54 55 54 54 52 54 55 60 62 62 66 62 63 63 65 70 69 74 72 73 75 78 77 78 79
65 72 85 70 66 64 58 61 53 52 49 47 47 51 53 58 57 54 52 53 57 55 56 57 55 54 51 49 49 51 54 57 61 64 66 61 66 62 59 73 63 61 66 67 68 70 71 74 76
52 70 69 59 59 59 59 57 49 45 47 47 45 49 51 53 55 53 51 54 55 56 57 56 55 55 52 46 48 50 53 58 59 63 67 65 66 52 50 57 61 56 59 63 65 67 70 71 72
41 53 57 51 46 51 53 50 47 45 42 45 47 46 47 48 45 48 50 51 54 55 55 53 52 52 52 50 45 46 53 57 52 52 65 67 66 55 48 41 52 52 52 56 60 66 65 66 63
37 37 46 49 48 49 49 53 53 52 46 41 46 45 44 46 47 44 45 47 48 50 51 52 50 51 51 50 45 49 52 51 52 57 57 67 62 57 40 34 39 45 50 54 56 57 57 56 57
39 38 41 42 47 47 51 54 58 54 50 46 46 45 43 44 48 45 43 47 48 48 49 49 50 50 51 50 45 47 49 52 57 53 57 62 59 45 33 27 27 40 45 47 44 49 51 49 56
37 32 36 40 44 44 48 50 54 58 53 53 53 53 47 47 53 52 49 50 47 45 45 46 48 49 49 46 42 42 46 53 62 60 58 59 53 37 33 28 28 35 48 49 51 53 49 49 54
29 32 38 40 43 48 50 52 54 63 58 52 55 54 53 48 53 55 53 54 62 48 43 47 51 47 46 44 41 39 44 53 56 62 61 54 48 37 36 31 32 36 50 51 50 49 51 54 53
30 38 34 39 42 48 49 48 56 60 57 53 55 57 54 48 45 54 53 55 60 59 45 46 50 50 43 43 41 39 44 51 54 61 63 51 39 36 34 33 36 41 45 44 51 52 53 54 52
27 30 31 35 44 47 52 56 54 51 53 56 58 53 50 52 50 52 52 51 55 56 55 50 49 51 48 43 41 38 43 46 50 57 61 49 37 32 36 39 38 46 52 50 43 43 47 51 56
20 24 27 23 39 48 51 57 52 46 53 56 58 59 54 48 48 51 53 50 52 56 58 57 53 54 52 46 41 41 40 43 46 56 60 56 38 32 36 39 50 45 44 48 43 37 38 47 58
16 20 25 39 44 46 57 50 46 49 49 54 61 57 50 53 53 53 51 50 52 54 56 57 58 57 57 51 46 43 42 41 41 46 50 55 54 48 33 40 52 49 47 44 38 36 41 48 56
15 17 20 29 40 48 51 53 54 47 44 47 51 57 58 59 55 54 51 49 49 51 55 61 58 56 54 53 48 44 40 38 39 41 44 48 46 50 41 37 45 55 51 49 48 48 51 59 59
14 16 18 25 33 41 54 52 43 43 43 52 53 49 57 56 52 52 52 47 46 48 49 48 55 58 55 52 46 42 40 38 38 40 43 45 41 40 42 41 40 49 51 49 48 48 49 58 60
16 19 18 19 32 45 48 50 36 39 41 47 50 45 50 49 48 48 48 44 45 44 47 50 58 60 57 49 45 44 41 37 36 37 40 40 35 36 36 38 40 42 43 45 46 47 49 53 56

GFSSGP_prec_cthk_342.txt.gz
RH
77 79 77 76 74 71 64 62 60 65 68 71 74 79 82 87 87 90 86 71 65 63 73 62 51 49 51 54 54 58 58 60 58 59 50 48 51 52 53 57 61 59 57 57 58 60 65 63 63
81 79 77 66 60 61 59 50 55 55 57 60 66 73 79 86 89 92 84 73 67 70 72 56 55 49 48 53 57 58 58 56 55 53 50 52 51 48 50 57 58 59 62 63 63 66 68 70 68
77 71 65 61 60 62 61 58 57 59 57 59 63 68 74 87 90 88 78 69 64 72 71 54 55 53 51 50 53 52 52 52 50 49 50 54 47 48 48 52 53 59 64 66 65 67 73 75 73
78 71 68 67 64 59 61 61 66 62 57 57 59 63 68 79 88 83 77 75 72 70 67 59 54 54 57 53 52 51 48 49 47 48 51 50 49 47 46 48 50 56 65 73 72 68 71 73 78
68 63 70 64 62 61 68 63 64 62 57 60 58 63 69 77 84 82 72 84 82 75 72 64 57 53 56 55 51 52 49 50 51 51 50 49 47 47 46 47 48 51 55 66 74 73 69 72 79
68 59 60 63 62 61 63 60 59 62 56 57 59 64 74 73 76 74 75 74 73 74 71 70 59 52 52 54 55 53 52 53 50 48 46 46 46 46 46 48 50 52 53 55 61 66 68 71 76
65 60 60 56 58 57 57 57 57 56 55 54 55 65 72 72 66 70 71 71 79 76 70 70 59 51 51 55 55 54 51 48 48 48 47 48 49 49 51 52 53 54 55 57 58 62 65 68 72
67 65 61 55 56 59 57 56 59 52 55 57 61 62 68 74 64 72 75 74 76 74 73 71 59 51 52 53 52 50 47 47 47 47 48 49 50 54 56 59 61 60 60 59 60 62 66 72 72
67 64 60 54 54 57 58 58 62 59 56 58 65 64 65 72 82 84 83 82 78 72 68 62 54 50 51 50 48 46 46 47 47 47 51 53 59 66 70 68 70 72 73 71 67 65 73 76 76
67 63 58 54 55 58 58 59 65 59 58 59 64 63 66 66 78 80 80 75 72 66 60 57 50 51 50 47 46 46 46 46 48 53 64 64 66 71 75 83 86 92 86 77 79 74 76 80 79
64 61 59 55 57 55 57 65 65 56 61 64 66 62 64 68 73 70 70 64 63 58 53 51 50 47 45 44 44 44 47 52 57 60 65 68 74 77 85 87 90 93 96 96 89 86 85 80 84
61 65 65 61 60 54 62 63 65 65 60 63 63 58 63 63 66 64 64 62 57 55 53 50 47 45 45 48 49 51 55 59 61 65 65 74 72 78 84 86 92 95 97 97 93 90 85 84 85
60 60 61 59 57 54 60 62 62 68 55 60 61 61 64 60 63 62 58 56 54 51 47 47 46 48 49 51 52 57 63 65 66 68 67 73 74 79 84 86 89 95 97 95 89 87 87 85 86
66 64 59 58 61 55 56 62 60 66 53 54 59 62 65 62 60 64 58 56 56 52 50 50 50 52 52 57 60 62 64 66 69 67 62 70 72 75 80 85 83 87 93 93 91 88 90 89 85
62 58 63 59 61 60 61 63 61 61 50 47 60 61 64 63 61 63 62 62 58 50 48 51 52 51 54 57 59 59 63 65 67 64 60 69 67 70 75 82 80 78 81 86 87 84 83 84 85
60 54 67 60 63 58 59 62 66 56 47 46 52 61 64 65 66 66 65 61 59 53 48 50 54 57 56 56 56 58 61 65 63 61 68 66 69 68 71 71 73 76 72 73 78 80 81 82 81
62 66 61 58 56 57 55 54 54 52 46 45 47 50 57 60 63 66 61 59 56 55 56 56 57 57 55 54 53 55 58 60 60 65 67 63 69 60 64 70 60 64 67 68 70 77 81 81 80
57 59 58 54 57 55 57 55 62 51 47 43 44 47 49 55 57 56 57 54 53 53 56 58 58 58 57 55 52 52 53 55 60 63 70 64 64 51 52 58 59 56 63 66 68 73 76 74 72
44 48 53 53 50 51 56 59 62 60 52 50 45 46 47 47 50 49 48 51 52 53 53 55 57 56 56 57 52 47 50 58 56 57 61 65 64 55 47 46 51 52 57 62 69 70 72 66 64
38 44 48 49 48 46 49 56 60 66 60 57 54 47 45 46 45 44 45 47 50 52 50 52 53 51 52 54 52 45 48 52 54 56 64 64 61 55 42 36 42 47 53 58 62 63 64 62 64
37 41 41 45 50 47 47 53 58 58 58 56 56 52 46 44 42 42 46 46 48 48 46 46 48 49 50 51 46 43 46 52 60 55 56 60 56 42 37 30 31 41 46 46 50 58 56 61 62
34 32 38 46 50 52 49 53 54 56 56 55 56 55 48 39 42 42 44 43 46 46 45 43 45 47 49 46 44 42 44 53 65 64 60 58 55 38 35 29 28 36 47 47 51 49 47 56 54
32 35 39 42 48 53 52 52 46 55 56 54 55 55 55 44 41 42 43 43 44 44 40 42 47 47 46 45 44 42 43 53 61 63 61 55 50 37 35 34 32 35 47 48 47 47 47 49 47
35 35 38 41 44 49 45 46 46 53 53 55 55 56 55 51 45 42 43 44 46 45 41 44 48 51 49 44 44 41 41 49 56 63 66 60 43 36 36 36 37 40 44 42 47 47 48 49 47
32 29 35 42 50 47 45 47 45 44 49 51 61 61 64 61 52 46 45 46 52 50 52 47 46 50 51 50 44 42 40 47 50 58 64 59 42 35 36 42 42 45 49 49 40 45 45 46 54
27 25 28 25 45 45 47 49 41 42 44 46 55 63 66 59 53 47 45 46 49 53 54 55 46 48 51 52 43 41 40 41 44 52 58 59 45 33 35 41 51 47 44 48 44 37 37 44 55
20 21 28 43 46 46 47 42 38 38 42 44 50 56 61 57 49 45 44 42 39 43 49 52 51 52 56 55 49 43 43 41 43 45 55 59 58 44 32 38 46 52 46 41 37 33 33 43 52
18 23 24 33 42 43 44 44 44 42 43 45 49 58 63 53 48 45 42 41 41 41 49 52 51 54 56 56 55 51 44 43 42 45 45 52 55 56 53 38 41 56 53 49 48 48 47 48 55
16 16 22 30 36 41 44 43 39 40 43 48 48 53 50 49 49 49 46 44 43 44 46 47 48 53 53 55 55 53 50 46 42 43 47 48 51 50 47 45 38 46 55 53 51 49 52 52 49
14 16 21 20 28 40 42 40 39 41 44 47 48 50 53 55 56 51 50 48 46 46 47 46 48 51 52 54 55 50 48 47 43 41 44 48 48 46 42 44 43 42 46 51 54 49 48 50 48

GFSSGP_prec_cthk_345.txt.gz
RH
79 76 70 68 67 56 57 61 62 67 71 72 77 81 83 89 87 90 81 74 74 74 74 61 57 59 56 51 54 54 54 53 52 50 52 53 52 56 58 60 59 55 56 57 62 64 63 68 70
75 72 64 56 53 50 53 52 58 59 61 66 72 77 80 92 89 86 75 69 69 76 68 61 57 56 58 61 58 58 56 54 53 54 56 49 47 54 54 57 57 59 60 64 67 69 70 67 72
71 62 58 56 54 56 60 61 59 60 58 61 65 70 77 88 88 77 71 68 71 74 67 60 54 51 57 61 57 56 58 54 54 52 51 48 49 52 50 52 58 63 65 66 68 71 72 73 75
74 68 63 60 65 69 64 60 62 60 58 62 65 66 73 85 84 80 71 71 76 73 64 59 57 53 55 58 59 61 59 51 51 51 50 51 50 51 51 50 56 62 68 70 68 70 74 79 76
67 64 62 58 64 64 60 60 59 59 60 61 60 66 74 79 80 73 70 74 78 77 66 55 57 57 52 57 55 55 57 50 50 51 52 53 51 48 47 49 52 54 62 71 74 71 71 77 84
62 61 58 59 60 60 59 59 61 59 57 57 63 70 78 76 74 80 74 75 78 79 73 62 54 53 55 54 55 55 53 53 48 48 48 48 49 51 50 51 52 53 54 58 65 70 71 76 83
63 63 59 55 59 62 63 60 51 52 54 58 61 71 81 73 70 79 79 82 75 77 79 64 55 52 56 57 56 52 54 50 49 51 51 49 52 54 56 58 57 56 57 57 60 65 70 73 77
73 62 57 57 60 61 61 59 53 53 55 58 58 70 80 75 67 69 74 73 73 75 76 62 52 53 57 56 56 51 50 49 49 49 50 54 60 60 63 64 66 67 64 62 62 64 71 75 73
71 60 58 59 61 62 59 57 62 62 57 64 66 64 66 66 70 77 72 77 78 72 68 60 52 52 54 53 49 47 47 47 48 50 54 56 66 72 70 72 76 74 78 75 72 70 76 75 77
62 56 57 59 59 60 61 63 63 65 67 71 63 61 68 74 76 70 76 78 74 69 65 57 51 53 51 48 46 46 47 48 49 60 66 66 71 78 88 90 95 94 95 86 88 84 81 80 80
62 58 57 56 55 58 62 71 67 63 70 69 60 65 71 76 79 75 80 77 70 62 57 52 50 50 47 45 46 45 47 52 57 64 66 73 79 86 87 86 91 98 98 99 95 94 92 85 82
59 58 54 56 52 56 61 71 71 61 69 66 61 64 67 72 73 73 72 67 63 58 58 51 48 45 44 45 47 48 54 58 62 65 71 74 77 83 87 89 91 96 99 99 96 93 88 85 84
52 56 53 52 50 56 58 64 65 63 65 63 62 64 68 69 68 65 63 60 58 54 51 47 45 45 45 47 50 56 62 63 66 65 70 72 79 80 83 85 86 94 95 95 91 92 90 86 83
51 48 49 52 54 52 56 61 59 66 61 61 61 63 66 65 61 61 56 56 55 49 46 45 47 49 49 53 58 63 62 66 67 63 66 69 73 76 80 83 82 90 93 94 91 89 90 86 85
52 54 51 53 54 54 56 61 63 60 53 59 59 61 61 65 60 59 59 56 52 49 48 49 52 53 55 57 58 59 60 64 64 62 62 69 70 73 75 81 77 78 83 89 89 85 87 85 85
57 56 56 55 52 53 53 59 61 59 47 56 61 62 62 61 58 58 58 56 51 48 47 52 53 55 56 56 56 58 60 65 61 63 69 65 70 71 75 69 74 72 74 79 82 82 84 85 80
56 61 55 52 50 50 49 54 60 57 49 47 53 59 61 61 59 58 60 54 52 49 47 53 54 54 51 53 53 55 57 60 59 64 68 63 67 57 68 60 64 67 69 69 77 82 80 79 75
48 55 56 55 57 57 53 54 56 55 48 47 49 50 53 54 61 59 58 54 51 51 53 53 54 54 54 52 51 50 52 55 58 62 71 65 62 49 52 55 61 62 65 67 72 76 76 71 68
39 43 48 51 50 54 55 58 59 54 50 46 49 49 50 52 54 56 53 50 50 50 52 54 54 53 52 53 51 46 48 54 58 60 64 66 66 53 40 44 49 53 62 63 67 71 68 63 63
35 38 40 48 48 47 50 55 60 58 53 48 48 50 51 51 49 47 47 46 48 49 49 50 51 51 52 53 51 46 44 49 53 56 62 62 61 54 38 34 41 48 53 62 59 60 58 57 62
33 36 38 41 48 47 48 54 59 59 61 62 60 51 48 47 47 47 45 44 46 46 45 45 47 50 50 52 48 44 44 48 56 55 55 59 55 40 32 28 33 43 49 49 56 58 55 59 59
31 32 35 41 45 50 49 45 54 56 60 61 61 62 55 45 47 48 47 44 42 41 43 42 43 47 49 50 46 44 41 48 61 61 58 56 57 38 31 32 29 39 48 48 51 51 51 54 52
32 31 36 40 42 46 47 46 46 54 56 57 59 62 60 54 46 46 45 43 41 40 39 38 41 44 47 47 45 41 41 45 55 62 62 57 51 36 33 34 33 38 47 47 46 46 48 52 50
33 35 36 37 36 42 42 43 40 50 51 53 59 63 63 58 52 48 44 43 40 37 34 36 40 42 44 43 43 39 40 45 50 57 66 63 49 35 36 35 36 40 42 43 45 47 50 53 49
33 28 32 35 36 37 40 41 40 43 47 51 57 62 64 63 55 48 45 45 42 38 37 37 39 41 42 42 41 39 38 44 46 52 63 63 53 36 37 44 43 45 48 47 39 42 45 47 48
34 26 23 26 27 31 40 37 39 44 45 51 57 61 66 66 63 52 47 47 47 45 44 41 41 41 41 42 42 40 39 40 43 47 54 58 56 37 36 40 48 54 47 48 45 39 35 40 54
27 25 23 30 37 34 36 33 33 41 43 49 53 60 63 65 63 53 49 46 46 45 44 44 44 41 45 46 45 41 41 40 41 43 48 55 57 51 34 36 45 58 53 46 41 36 32 37 47
21 23 24 28 33 32 33 32 35 40 47 52 57 63 64 61 53 50 50 48 45 43 44 46 47 47 48 51 47 46 44 42 42 43 44 46 51 55 56 44 40 47 59 53 45 44 43 42 44
18 20 24 25 28 25 28 26 37 40 47 51 51 56 56 55 51 49 50 48 46 43 43 48 49 49 49 50 52 49 49 48 44 43 45 45 47 50 55 57 49 43 52 60 57 53 50 52 50
18 17 20 18 27 28 30 29 35 34 43 50 50 54 52 53 54 52 49 46 47 47 46 49 49 47 49 49 52 54 53 48 49 45 43 43 46 46 46 48 49 47 44 53 60 60 56 51 52